Location: Gajan
(43.0218°N, 1.1244°E)
Time: 14:38:58
(UTC+00:00)

NOSS 3-1 (C) - Pass Details

Date: 22 April 2021
Orbit: 732 x 1476 km, 63.4° (Epoch: 18 April)

Event Time Altitude Azimuth Distance (km) Brightness Sun altitude
Rises 21:07:10 0° 325° (NW) 3,899 8.1 -22.7°
Reaches altitude 10° 21:09:46 10° 330° (NNW) 3,043 7.1 -23.0°
Maximum altitude 21:17:03 54° 47° (NE) 1,532 4.4 -23.9°
Enters shadow 21:20:23 36° 104° (ESE) 2,017 4.7 -24.3°
